Location: La Brionne
(46.1728°N, 1.7849°E)
Time: 08:54:02
(UTC+00:00)

Cosmos 968 Rocket - Pass Details

Date: 16 June 2021
Orbit: 740 x 771 km, 74.0° (Epoch: 02 August)

Event Time Altitude Azimuth Distance (km) Brightness Sun altitude
Rises 22:23:45 0° 338° (NNW) 3,188 8.5 -17.5°
Reaches altitude 10° 22:26:06 10° 339° (NNW) 2,262 7.3 -17.7°
Maximum altitude 22:31:14 84° 68° (ENE) 754 3.4 -18.0°
Enters shadow 22:33:32 34° 155° (SSE) 1,216 4.0 -18.1°
